This is the latest recevied weather packets stored in our database for station/object KI6AOK. If no packets are shown the sender has not sent any weather packets the latest 10 day(s).
| Time | Temp. | Humidity | Pressure | Rain* | Wind** | Luminosity | Snow |
|---|---|---|---|---|---|---|---|
| 1777862858 | 16.11° C | 68% | 1014 hPa | 0 mm | - | 0 W/m² | - |
| 1777862555 | 16.11° C | 68% | 1014 hPa | 0 mm | - | 0 W/m² | - |
| 1777862252 | 16.11° C | 68% | 1014 hPa | 0 mm | - | 1 W/m² | - |
| 1777861948 | 16.11° C | 67% | 1014 hPa | 0 mm | - | 2 W/m² | - |
| 1777861644 | 16.11° C | 67% | 1014 hPa | 0 mm | - | 4 W/m² | - |
| 1777861340 | 16.11° C | 67% | 1014 hPa | 0 mm | - | 5 W/m² | - |
| 1777861038 | 16.11° C | 66% | 1014.5 hPa | 0 mm | - | 5 W/m² | - |
| 1777860735 | 16.67° C | 65% | 1013.8 hPa | 0 mm | - | 7 W/m² | - |
| 1777860431 | 16.67° C | 64% | 1014 hPa | 0 mm | - | 9 W/m² | - |
| 1777860127 | 16.67° C | 64% | 1014 hPa | 0 mm | - | 10 W/m² | - |
| 1777859824 | 16.67° C | 64% | 1013.9 hPa | 0 mm | - | 13 W/m² | - |
| 1777859520 | 16.67° C | 63% | 1013.8 hPa | 0 mm | - | 17 W/m² | - |
| 1777859216 | 16.67° C | 63% | 1013.8 hPa | 0 mm | - | 22 W/m² | - |
| 1777858913 | 16.67° C | 62% | 1013.8 hPa | 0 mm | - | 24 W/m² | - |
| 1777858611 | 16.67° C | 63% | 1013.9 hPa | 0 mm | - | 43 W/m² | - |
| 1777858308 | 17.22° C | 62% | 1013.7 hPa | 0 mm | - | 33 W/m² | - |
| 1777858005 | 16.67° C | 62% | 1013.6 hPa | 0 mm | - | 61 W/m² | - |
| 1777857703 | 17.22° C | 61% | 1013.5 hPa | 0 mm | - | 77 W/m² | - |
| 1777857399 | 17.22° C | 61% | 1013.7 hPa | 0 mm | - | 40 W/m² | - |
| 1777857096 | 17.22° C | 61% | 1013.3 hPa | 0 mm | - | 62 W/m² | - |
| 1777856792 | 17.22° C | 60% | 1013.4 hPa | 0 mm | - | 75 W/m² | - |
| 1777856488 | 17.22° C | 60% | 1013.6 hPa | 0 mm | - | 67 W/m² | - |
| 1777856185 | 17.22° C | 59% | 1013.3 hPa | 0 mm | - | 72 W/m² | - |
| 1777855882 | 17.78° C | 58% | 1013.1 hPa | 0 mm | - | 82 W/m² | - |
| 1777855580 | 17.78° C | 58% | 1013 hPa | 0 mm | - | 92 W/m² | - |
* Rain latest hour (hover to see other rain measurements)
** Current wind speed in m/s (hover to see current wind gust speed)